Dewpoint
50 50 50 51 52 52 52 51 51 51 50 50 50 47 43 42 36 8 7 25 41 48 50 30 12 12 22 25 27 24 21 20 20 19 19 20 15 15 14 8 9 33 54 59 62
49 49 50 50 51 51 50 50 50 51 51 50 48 45 46 46 34 5 12 37 38 41 14 14 9 12 7 19 25 21 18 20 19 19 17 17 15 10 7 7 8 15 51 59 62
48 49 49 49 50 51 50 49 49 50 51 51 49 49 49 45 10 4 19 32 34 27 24 23 16 8 5 16 18 18 16 17 15 18 20 12 6 8 6 3 5 6 8 45 59
48 48 49 48 49 49 49 48 47 48 48 47 48 47 44 18 -1 5 25 29 28 12 6 8 6 7 5 4 7 4 9 12 8 6 3 1 3 7 4 5 8 17 29 32 34
47 47 47 48 48 49 49 47 45 45 46 47 42 46 14 4 3 6 21 12 10 7 5 6 6 12 11 9 8 3 7 10 8 4 1 2 -1 3 7 15 28 29 30 31 33
47 47 47 47 48 48 47 45 42 40 43 43 38 39 5 2 6 7 6 7 8 7 5 5 4 10 13 11 10 9 11 11 6 5 -2 -1 -0 0 4 27 27 27 27 29 29
47 48 48 48 48 46 44 43 39 36 38 41 39 29 5 4 10 7 6 7 8 8 5 5 6 14 14 11 14 14 11 5 2 -4 -5 -2 2 21 21 26 25 25 26 26 27
48 48 49 49 48 45 43 40 38 36 38 38 36 19 3 7 13 6 7 8 9 9 7 6 12 16 15 14 9 5 2 -1 1 0 -3 -4 7 25 26 25 25 26 26 26 27
48 49 49 48 47 44 40 36 33 34 35 33 20 11 5 10 5 7 8 8 7 7 5 8 14 8 0 -2 1 1 -4 -2 -2 2 1 -4 7 25 25 25 25 27 27 26 27
47 48 49 48 46 43 37 37 33 20 17 16 12 5 6 6 7 8 8 9 6 6 2 2 3 2 3 1 -6 -5 -2 -2 -2 0 3 9 23 23 23 23 24 25 28 27 27
47 48 48 48 46 44 34 30 24 11 13 4 5 5 6 7 10 10 8 8 8 7 4 2 2 2 2 1 2 2 0 -0 1 2 2 13 22 23 22 22 23 24 25 27 26
47 47 47 46 43 40 38 34 37 36 8 7 6 7 8 8 9 11 10 7 6 4 5 2 -1 3 1 0 -1 -1 0 -0 1 1 1 16 20 19 21 20 22 24 24 25 26
47 46 46 44 41 37 39 39 43 42 16 6 6 7 9 9 10 10 11 9 6 4 3 1 1 1 -0 2 2 0 -3 -0 -0 1 2 9 19 16 17 20 21 22 25 24 25
46 45 44 42 33 37 36 36 43 42 7 5 5 9 9 11 9 11 10 10 7 5 4 4 2 -1 -2 0 -0 -5 -1 10 10 4 -3 1 1 14 16 18 20 21 23 23 24
45 43 44 37 31 28 33 40 45 41 4 10 7 12 12 8 10 9 9 10 7 5 3 2 1 -0 -2 -0 -1 -1 11 13 13 8 4 2 7 12 15 17 19 21 23 22 23
45 41 43 38 36 38 42 44 36 16 4 8 10 10 9 10 11 9 8 8 8 8 5 5 4 3 0 2 0 -1 7 12 15 7 3 1 7 11 15 18 19 21 23 24 23
45 41 41 42 33 42 43 36 9 5 10 7 8 12 9 8 10 9 7 6 4 2 0 4 3 1 2 1 0 2 8 8 1 3 5 15 9 13 19 21 23 22 23 23 19
44 43 35 40 42 44 33 16 2 10 8 10 11 12 9 10 10 8 6 6 6 4 4 3 -9 -0 1 -0 -0 3 9 10 3 6 9 13 7 12 21 23 22 19 20 20 14
41 40 29 35 44 38 16 5 9 10 9 11 13 11 10 8 11 10 8 7 7 5 -6 -4 -3 1 -1 -2 6 9 12 18 12 11 4 10 14 13 17 18 16 15 15 16 15
33 36 26 37 39 23 14 12 10 13 13 14 8 10 7 7 9 10 9 7 6 5 6 -1 1 -1 -1 6 8 10 12 12 14 5 1 6 7 7 12 18 18 12 12 12 12
37 22 26 36 26 18 12 12 12 15 15 14 10 10 9 8 10 8 7 6 6 -0 5 5 5 -2 3 9 8 10 10 13 17 10 5 1 4 9 11 15 20 14 13 14 15
28 17 28 29 15 18 11 13 14 14 15 14 12 10 9 10 8 8 5 2 3 4 -1 3 2 -2 -1 11 8 8 8 13 5 2 6 4 3 11 11 13 13 17 16 15 18
24 26 29 25 11 15 15 14 13 15 14 12 12 11 11 10 6 9 10 2 3 0 1 3 -3 1 1 2 9 10 6 9 9 4 3 -1 -2 7 10 12 13 15 17 17 19
25 19 23 23 24 16 14 14 14 15 13 14 12 12 11 11 9 7 9 12 14 1 2 3 1 5 5 10 12 9 8 5 6 4 4 4 7 7 10 11 13 14 17 19 18
28 24 25 19 18 17 16 15 12 14 15 15 14 11 11 10 9 8 9 11 12 8 3 -1 -6 11 15 14 12 12 10 8 5 5 2 4 6 7 9 12 12 15 16 17 18
28 24 24 24 21 15 16 15 13 13 12 12 11 11 11 9 8 5 9 12 10 7 10 4 -5 9 11 15 17 11 10 9 9 8 6 6 6 9 11 14 11 11 13 15 17
35 36 23 21 17 15 15 16 14 14 15 14 12 10 9 9 12 13 14 14 13 13 13 5 -2 -2 -3 15 15 3 7 12 10 10 7 2 4 7 7 8 10 11 11 13 16
Wind_Speed
20 21 20 19 19 18 16 14 12 10 8 8 8 10 13 17 10 20 22 11 13 21 9 13 7 14 3 1 1 3 2 5 3 3 6 16 14 11 14 9 5 14 5 8 17
22 22 21 19 17 15 12 11 12 10 9 8 7 9 11 11 2 18 9 20 23 18 14 14 13 12 3 2 1 2 2 5 5 7 16 18 11 11 9 17 11 21 16 9 16
20 19 18 17 16 14 13 13 14 13 11 10 9 12 15 4 4 9 15 24 25 19 5 4 4 4 4 4 1 0 5 5 10 11 8 7 8 10 16 18 23 24 21 9 7
21 20 18 18 17 16 15 14 14 14 14 12 13 16 9 4 6 10 21 23 22 16 8 7 7 5 3 5 3 5 5 2 7 11 6 4 5 19 22 14 19 28 31 38 43
20 20 19 18 17 15 14 13 12 13 14 16 18 15 6 10 7 13 23 22 12 11 8 8 7 5 6 7 12 5 3 7 9 6 6 3 7 17 27 21 24 25 31 34 32
20 20 19 18 17 16 15 14 12 12 11 11 17 9 9 21 12 14 22 18 14 6 8 3 3 5 4 4 4 7 11 11 3 12 8 11 12 7 21 19 30 33 29 27 30
21 21 20 19 17 17 16 15 13 12 11 8 12 2 15 12 10 18 19 16 7 4 4 3 2 2 5 10 4 11 8 4 14 20 9 9 18 20 19 23 29 29 30 28 27
20 19 18 16 15 15 15 13 10 10 11 8 5 4 5 3 12 20 18 23 17 5 4 6 4 5 7 9 9 7 5 4 6 21 10 12 4 20 21 25 27 27 29 30 32
19 19 18 18 17 15 15 12 11 15 7 4 6 5 6 13 24 21 11 20 12 16 23 10 7 8 16 16 6 10 10 9 7 14 13 14 2 20 23 26 28 27 27 30 32
20 20 19 19 18 16 12 8 11 7 5 3 6 4 10 13 12 19 18 16 8 19 10 18 12 16 27 22 10 16 14 6 3 12 19 15 11 15 21 25 25 26 27 30 31
20 19 19 18 16 11 6 4 6 7 11 10 2 5 4 8 14 21 12 11 11 12 8 13 27 21 19 19 18 17 12 10 14 10 20 15 16 16 21 29 30 29 30 29 31
19 20 19 17 13 8 8 7 3 1 4 1 4 9 7 6 16 29 16 12 19 22 10 9 23 11 16 23 21 18 12 10 12 25 18 11 14 14 23 24 24 28 30 31 31
19 20 19 14 4 10 13 6 8 1 3 1 2 10 11 17 12 25 19 7 12 17 20 18 9 13 17 26 29 19 14 14 19 23 17 7 4 18 20 24 26 28 26 28 31
20 20 20 7 4 3 4 11 8 1 5 10 11 10 23 4 9 21 18 8 10 13 7 7 12 19 22 21 20 25 14 25 28 16 11 4 5 17 24 25 29 29 30 30 31
20 19 17 13 4 3 5 10 6 2 3 10 7 4 12 12 4 23 22 11 12 17 18 14 16 18 22 20 19 22 24 30 28 26 18 13 6 13 14 23 28 28 29 30 30
17 17 14 6 3 0 6 4 3 3 3 7 5 8 12 11 9 10 17 13 6 4 14 6 6 12 17 23 23 28 22 35 24 18 15 15 9 14 12 20 22 24 27 28 30
15 13 5 0 7 6 3 3 2 7 7 10 8 7 7 15 10 9 19 34 17 12 21 8 7 14 16 27 29 30 26 10 5 5 2 15 21 7 15 17 20 23 24 25 28
13 7 4 2 9 1 3 4 8 4 4 6 7 7 7 13 7 12 8 9 19 7 4 12 13 22 24 17 12 21 7 7 10 7 5 12 8 7 14 18 19 19 19 23 26
4 3 8 19 4 3 7 12 4 3 4 8 4 7 8 11 10 8 9 8 11 14 8 13 5 14 19 13 8 17 18 20 7 13 7 6 8 9 21 20 23 23 23 24 26
2 3 11 19 3 7 12 7 3 5 3 3 6 7 7 10 11 6 8 6 4 6 2 5 6 9 14 9 7 7 15 11 10 9 6 6 6 15 26 22 22 24 25 25 22
4 3 10 17 7 15 10 6 4 6 4 5 3 3 5 6 6 3 7 2 3 7 3 2 2 12 6 12 15 13 12 7 4 9 5 3 6 12 18 20 19 21 22 22 23
4 5 11 9 10 5 6 3 3 6 8 6 4 4 3 4 5 2 1 2 6 4 8 2 2 9 4 2 12 13 10 7 6 9 7 4 2 9 16 18 18 19 21 22 22
5 3 7 7 8 9 8 8 5 4 7 4 6 5 5 3 3 0 1 4 4 9 8 5 5 8 10 5 9 7 15 11 6 3 12 4 5 12 15 19 19 17 20 21 22
5 4 8 12 5 15 9 5 4 5 8 7 4 3 6 2 3 2 2 1 7 3 9 2 1 3 6 4 7 4 13 17 6 5 2 2 11 16 17 20 22 20 19 19 20
6 4 1 4 9 11 6 3 3 2 3 8 3 4 3 3 6 2 2 5 4 3 6 3 4 6 6 3 3 2 6 10 15 3 4 7 7 14 18 18 18 19 18 19 20
5 5 5 4 3 11 6 2 2 1 2 1 2 3 1 3 5 6 3 2 5 2 6 4 5 6 9 9 4 2 3 4 4 3 2 5 8 7 15 12 15 21 21 21 21
4 3 6 4 3 4 1 3 2 5 3 3 2 2 4 5 10 16 16 12 9 6 7 4 5 5 6 5 5 5 3 3 2 3 3 3 8 11 17 19 17 20 22 23 21
Wind_Direction
7 9 10 8 8 8 12 13 23 26 23 26 14 352 347 344 352 30 32 328 318 326 338 315 2 355 78 59 139 118 198 249 277 330 294 309 342 314 287 302 41 358 53 128 104
6 5 6 5 5 8 10 16 28 27 24 24 5 340 330 335 54 30 356 345 343 352 355 352 351 356 26 351 43 163 199 251 223 269 292 312 313 322 347 353 33 16 25 105 140
4 2 1 1 1 0 358 4 12 15 17 12 358 344 333 320 81 344 346 343 344 355 333 316 329 3 353 354 317 94 235 278 294 283 309 316 1 337 5 19 356 360 339 313 180
3 0 357 358 359 359 358 0 1 8 9 360 356 348 343 14 41 306 337 328 335 351 12 8 353 18 345 329 338 318 246 79 322 324 354 0 345 73 39 4 356 30 46 42 38
359 358 355 354 353 354 356 359 2 9 9 6 1 359 43 42 8 320 319 322 340 3 10 2 35 9 350 323 331 227 16 349 304 326 38 8 16 96 29 23 32 45 40 37 28
355 355 353 351 348 348 348 349 356 3 8 8 2 5 65 52 321 313 323 333 348 6 342 351 340 298 298 297 305 317 323 327 4 352 33 5 35 66 359 35 35 26 34 39 29
353 353 352 350 348 343 342 341 344 350 356 1 347 44 57 20 334 329 340 331 306 302 302 265 226 33 330 319 341 302 323 20 19 355 19 343 43 16 18 44 39 27 16 22 28
350 350 347 346 345 338 334 332 325 333 330 327 15 81 85 343 331 359 347 354 359 11 263 309 131 78 13 307 344 346 60 19 350 21 346 359 54 14 15 42 37 28 19 13 8
346 347 348 347 346 341 339 336 337 342 0 43 56 76 26 334 6 353 3 357 341 359 35 43 67 67 12 7 358 21 329 328 317 25 357 31 61 19 24 36 33 23 21 12 5
346 347 348 346 345 342 337 334 336 33 12 39 60 66 358 352 350 356 347 9 17 3 39 34 40 40 32 28 354 320 317 309 335 342 350 80 63 29 30 39 32 21 18 14 7
346 345 347 348 351 356 22 22 21 19 27 81 101 88 292 344 26 9 340 5 15 45 56 45 49 35 42 31 20 12 347 348 325 337 343 99 69 42 31 34 26 20 16 12 7
346 344 349 353 9 26 60 80 70 224 81 321 64 29 347 82 27 9 359 38 32 44 43 58 43 52 48 29 22 9 348 329 311 338 330 127 82 46 45 40 32 20 14 10 1
346 347 352 349 8 45 78 61 321 123 120 24 57 34 3 77 34 4 9 23 33 44 65 76 13 28 35 23 6 339 291 320 309 314 292 168 99 26 19 31 24 22 11 10 6
347 352 356 358 65 358 63 331 337 162 82 357 2 13 359 86 58 16 2 16 34 26 28 47 18 22 27 14 359 314 326 319 297 297 268 10 285 22 2 20 21 13 9 4 358
347 354 4 45 124 58 303 325 332 80 44 339 27 40 36 82 308 6 358 54 62 57 42 335 18 25 12 349 339 313 317 297 272 262 253 254 117 342 10 13 9 8 4 360 355
342 349 356 21 41 341 327 334 59 60 61 344 33 23 33 21 38 62 42 29 61 19 28 322 75 31 5 339 323 310 317 304 270 251 246 222 149 33 21 13 4 5 2 353 352
336 334 4 92 339 326 353 63 48 68 346 348 340 347 52 2 31 22 44 48 41 7 0 350 69 12 7 339 327 342 345 324 330 143 300 79 71 64 27 18 13 4 360 354 358
324 332 356 339 312 332 63 71 69 4 6 343 336 61 53 7 7 36 30 48 33 31 335 6 338 8 333 333 292 316 314 305 321 353 86 44 75 60 40 23 13 4 358 1 3
341 1 9 347 19 87 77 54 81 13 327 334 343 30 2 6 356 46 47 39 33 25 23 359 308 320 345 333 4 322 338 305 248 265 61 35 51 59 21 22 13 6 4 6 -0
73 33 0 344 32 63 71 97 85 7 353 48 47 27 356 347 7 25 31 10 17 4 29 339 296 310 331 341 341 324 316 347 353 353 67 31 56 3 353 3 359 360 2 357 357
60 51 338 350 50 54 82 86 113 27 44 54 39 44 7 356 347 44 17 57 351 344 7 352 199 312 9 18 3 356 358 341 298 18 39 70 44 349 343 345 337 345 348 341 336
70 52 335 13 50 46 65 89 96 16 34 52 75 72 359 345 8 81 81 67 334 322 358 294 254 317 289 98 31 14 358 344 37 1 17 84 98 347 344 343 335 329 338 342 334
71 2 335 57 89 77 82 72 75 39 28 50 35 38 12 0 307 117 147 203 344 23 11 340 4 337 341 317 1 20 9 25 86 89 24 48 321 342 333 336 331 328 331 338 337
85 60 21 44 54 106 105 53 101 60 49 67 35 44 4 8 15 299 297 236 319 343 6 100 132 236 255 261 288 2 35 38 69 63 113 24 296 314 330 335 331 328 326 330 339
43 76 80 51 47 89 94 87 69 39 76 39 64 40 316 304 320 254 303 321 305 6 11 17 267 194 179 187 29 359 55 56 69 112 64 321 314 312 319 322 319 318 322 331 338
96 115 57 80 72 73 43 79 77 47 34 55 66 326 299 268 233 284 261 245 265 317 357 356 286 198 212 173 230 179 99 78 44 36 276 279 291 299 310 307 322 330 329 332 334
20 57 105 4 72 91 85 148 157 162 20 145 174 330 310 275 243 246 236 237 242 275 301 282 284 329 301 185 172 290 243 188 164 208 223 328 289 307 322 327 323 322 323 326 329